Voltar ao catálogo

FENGYUN 1C DEB

AtivoSSO
NORAD 30388·DEBRIS·🇨🇳 China

Lançado May 10, 1999 de Taiyuan Satellite Launch Center

Loading…

Próximas Passagens (próximas 24 horas)

TLE

AtualizadoSource: Space-Track

Época: Sep 14, 2026, 18:35 UTC

1 30388U 99025ADB 26257.77449662  .00000768  00000-0  29868-3 0  9991
2 30388  98.5831 275.7057 0219227 344.0296  68.2094 14.20392577 13465

Acompanhe FENGYUN 1C DEB em tempo real com AllMySat

Download on the App Store